Погода в Габороне

Ботсвана     24°39′30″S   25°54′43″E
темп.,
°C
ветер,
м/с
пор.,
м/с
влажн.,
%
обл.,
%
осадки,
мм/ч
давл.,
гПа
погр.,
м
5 марта, пт
пт523:00+24ю333743 0.0 101158
02:00+21ююв124345 0.0 101027
05:00+20ююв12481 0.0 101126
08:00+23всв23441 0.0 1013301
11:00+31ссв222812 0.0 10131188
14:00+33вюв232014 0.0 10103331
17:00+30ююз352795 0.0 1009892
20:00+26ю343486 0.0 1011123
6 марта, сб
сб623:00+24ю233612 0.0 101240
02:00+21в01416 0.0 101225
05:00+23ссв3104396 0.0 1013484
08:00+23ссв595162 0.0 1016558
11:00+29ссв45380 0.0 10161116
14:00+34ссв12210 0.0 10123375
17:00+30ююв222780 0.0 1011255
20:00+25ю233566 0.0 101387
7 марта, вс
вс723:00+22ссз014437 0.0 101428
02:00+21з114718 0.0 101326
05:00+20ссв23522 0.0 101452
08:00+23св014822 0.0 1015269
11:00+30сз33320 0.0 10141218
14:00+35з11190 0.0 10103377
17:00+30ююз352591 0.0 1009684
20:00+25в223554 0.0 101161
8 марта, пн
пн823:00+23св01385 0.0 101127
02:00+22зюз224010 0.0 101028
05:00+20зсз12470 0.0 101031
08:00+24в12390 0.0 1012210
11:00+31зсз23264 0.0 10111535
14:00+32зсз342319 0.0 10083268
17:00+29ссз232862 0.0 1008256
20:00+25с113663 0.0 101039
9 марта, вт
вт923:00+24сз254266 0.0 1011168
02:00+22зюз124867 0.0 101029
05:00+21зюз12508 0.0 101127
08:00+24св234535 0.0 1013220
11:00+27с123883 0.0 1013453
14:00+33с342359 0.0 10102999
17:00+32ссз342334 0.0 10091992
20:00+25юз124019 0.0 101135